Showing default

YUNYAO-1 19, 58759

Orbit data source: Space-Track

YUNYAO-1 19, 58759 is a payload satellite owned by Yunyao yuhang (CN) in LEO that was launched on Thu, 11 Jan 2024 UTC via a YINLI-1 launch vehicle from the Yellow Sea Launch Area, China (YSLA). Payload-class satellites include a variety of spacecraft equipped with specific instruments for various scientific and technological missions. These include communications satellites like Starlink; space stations such as the ISS; scientific satellites like the Hubble; Earth observation satellites from companies like Planet Labs, Umbra, and HawkEye 360; GPS; miniature CubeSats for education and research; and military/defense satellites.

Loading next visibility...
Identifier
58759, 2024-009B
Orbit
LEO
Country
Flag of CNCN / PRC
Related business
Manufacturer
Changguang WJ
Mission
Operational Commercial Meteo Radio Occ.
Bus & Motor
YY-1, Unknown motor
Mass
~500 kg wet, ~500 kg dry
Launch date (UTC)
2024-01-11 (2 years ago)
Launch vehicle
YINLI-1
Launch site
Yellow Sea Launch Area, China (YSLA)
Object type
Payload
Rocket body
Debris
Shape & HBR
Box + 1 Pan, 2.5 m
Radar Cross Section
5.339 m², Medium (>0.1 m² and < 1m²)

Expand to show TLE details & history
Last TLE update: 6 hours ago

TLE from 6 hours ago
0 YUNYAO-1 19
1 58759U 24009B   26095.30522029  .00013039  00000-0  67034-3 0  9993
2 58759  49.9817 163.4730 0005766 346.3697  13.7099 15.16707456123603
Epoch: 2026-04-05T07:19Z
TLE epoch observation values (Epoch: 2026-04-05T07:19:31.033Z)
Latitude
0.00005°
Longitude
-140.01882°
Altitude
512.488 km
Speed
7.611 km/s
True Right ascension
10h 53m 53s
True Declination
0° 00' 00"
Sunlit
Object was in full shadow at epoch
Visualization orbit readout
Latitude
Unknown
Longitude
Unknown
Altitude
Unknown
Speed
Unknown
Apparent Right ascension
Unknown
Apparent Declination
Unknown
Sunlit
N/A
Visualization observer readout
Local Sidereal Time
19:28:54
Azimuth
Unknown
Elevation
Unknown
Doppler factor
Unknown
Orbital elements
Apogee altitude
520.548 km
Perigee altitude
512.597 km
Semi-major axis
6,894.709 km
Eccentricity
0.00058
Inclination
49.9817°
RAAN
163.473°
Arg. of periapsis
346.3697°
True anomaly
13.72557°
Mean anomaly
13.7099°
Eccentric anomaly
13.71773°
Mean motion
3.79113 °/min
Orbital period
94.96 mins
BSTAR
0.00067034
Loading maneuver chart data...
Computing Atmospheric mass density...
Loading historical data...
Loading historical data...
Loading historical data...
Loading historical data...
Loading historical data...
Loading historical data...
Loading historical data...
Other satellites on launch #9 in the year 2024 (2024-01-11 UTC)

Documentation

Showing up to 5 results
|